Atlanta, GA

1:06 PM EDT on June 22, 2017 (GMT -0400)
The Hartsfield Atlanta International | | Change Station

Elev 1024 ft 33.64 °N, 84.43 °W | Updated 14 minutes ago

Mostly Cloudy
Mostly Cloudy
79 °F
Feels Like 79 °F
N
7
Wind Variable Wind from SE

Today
High -- | Low -- °F
--% Chance of Precip.
Yesterday
High -- | Low -- °F
Precip. -- in
Pressure 30.07 in
Visibility 7.0 miles
Clouds Few 700 ft
Mostly Cloudy 1500 ft
Mostly Cloudy 3000 ft
Dew Point 75 °F
Humidity 88%
Rainfall 0.10 in
Snow Depth Not available.
6:28 AM 8:51 PM
Waning Crescent, 3% visible
METAR KATL 221652Z 13006KT 7SM FEW007 BKN015 BKN030 26/24 A3009 RMK AO2 RAE13 SLP181 P0000 T02610239
Pressure 30.07 in
Visibility 7.0 miles
Clouds Few 700 ft
Mostly Cloudy 1500 ft
Mostly Cloudy 3000 ft
Dew Point 75 °F
Humidity 88%
Rainfall 0.10 in
Snow Depth Not available.
6:28 AM 8:51 PM
Waning Crescent, 3% visible
METAR KATL 221652Z 13006KT 7SM FEW007 BKN015 BKN030 26/24 A3009 RMK AO2 RAE13 SLP181 P0000 T02610239

Get Severe Weather Alerts

Thanks for signing up!

Be on the lookout for a verification email in your inbox.

You'll start receiving the daily forecast at 6 AM.

×

10-Day Weather Forecast

Almanac

Astronomy

Jun. 22, 2017 Rise Set
Actual Time
Civil Twilight
Nautical Twilight
Astronomical Twilight
Moon
Length of Visible Light
Length of Day
Tomorrow will be .
, % of the Moon is Illuminated

Today's Extremes

State Highs State Lows

Community

WunderPhotos

Category 6

Welcome to Category 6. This is the collective home for Weather Underground's featured writeups by Dr. Jeff Masters (right), Bob Henson (left), Chris Burt, and other regular contributors.

Nearby

Air Quality

  Air Quality AQ Index Pollutant
Not available.

Snow Depth

Station Depth Elevation

Earthquake Activity

City Distance Mag. Time & Date
Minimum magnitude displayed is 2.5.

Coastal Water Temperatures

Place Temperature

Stations

Nearby Weather Stations

Station Location Temp. Windchill Dew Point Humidity Wind Precip. Elev Updated Type
                   

Watches & Warnings

There are currently no watches in effect.